Quillayute, WA
on Sunday, January 27, 2013

Sunday
Previous Day Next Day
Daily Summary
 ActualAverageRecord
Temperature
Mean Temperature °F / °C 42°F / 6°C  
Max Temperature 44°F / 7°C 48°F / 9°C 55°F / 12°C (2007)
Min Temperature 37°F / 3°C 36°F / 2°C 17°F / -8°C (1969)
Degree Days
Heating Degree Days 24 23  
Month to date heating degree days 633  
Since 1 July heating degree days 3111  
Cooling Degree Days 0 0  
Month to date cooling degree days 0  
Year to date cooling degree days 0  
Moisture
Dew Point 37°F / 3°C   
Average Humidity 87    
Maximum Humidity 93    
Minimum Humidity 80    
Precipitation
Precipitation 0.77 in / 19.56 cm 0.43 in / 10.92 cm 1.50 in / 3.81 cm (1967)
Month to date precipitation 12.89  
Year to date precipitation 12.89  
Wind
Wind Speed 2 mph / 4 km/h   
Max Wind Speed 8 mph / 13 km/h   
Max Gust Speed 12 mph / 19 km/h   
Visibility 3 miles / 4 kilometers   
Events Rain   

Key: T is trace of precipitation, MM is missing value
Source: NWS Daily Summary
Time(PST)TemperatureDew PointHumidity Pressure Visibility Wind DirectionWind SpeedGust SpeedPrecipitationEvents Conditions
12:06 AM 39.2°F / 4.0°C 37.4°F / 3.0°C 93% 30.03 in / 1016.8 hPa 1.5 miles / 2.4 kilometers Calm Calm - 0.01 in / 0.3 cm Rain Light Rain
12:09 AM 39.2°F / 4.0°C 37.4°F / 3.0°C 93% 30.03 in / 1016.8 hPa 4.0 miles / 6.4 kilometers Calm Calm - 0.01 in / 0.3 cm Rain Light Rain
12:14 AM 39.2°F / 4.0°C 37.4°F / 3.0°C 93% 30.03 in / 1016.8 hPa 1.8 miles / 2.8 kilometers Calm Calm - 0.01 in / 0.3 cm   Overcast
12:18 AM 39.2°F / 4.0°C 35.6°F / 2.0°C 87% 30.03 in / 1016.8 hPa 0.8 miles / 1.2 kilometers Calm Calm - 0.01 in / 0.3 cm   Overcast
12:53 AM 39.9°F / 4.4°C 36.0°F / 2.2°C 86% 30.04 in / 1017.1 hPa 0.8 miles / 1.2 kilometers Calm Calm - 0.03 in / 0.8 cm   Overcast
1:08 AM 39.2°F / 4.0°C 35.6°F / 2.0°C 87% 30.03 in / 1016.8 hPa 1.5 miles / 2.4 kilometers Calm Calm - N/A   Overcast
1:16 AM 39.2°F / 4.0°C 35.6°F / 2.0°C 87% 30.03 in / 1016.8 hPa 2.0 miles / 3.2 kilometers Calm Calm - N/A   Overcast
1:30 AM 39.2°F / 4.0°C 35.6°F / 2.0°C 87% 30.03 in / 1016.8 hPa 6.0 miles / 9.7 kilometers Calm Calm - N/A   Overcast
1:53 AM 39.9°F / 4.4°C 37.0°F / 2.8°C 89% 30.04 in / 1017.2 hPa 5.0 miles / 8.0 kilometers Calm Calm - 0.00 in / 0.0 cm Rain Light Rain
2:53 AM 39.9°F / 4.4°C 37.0°F / 2.8°C 89% 30.04 in / 1017.3 hPa 6.0 miles / 9.7 kilometers SE 4.6 mph / 7.4 km/h - 0.01 in / 0.3 cm   Mostly Cloudy
3:01 AM 39.2°F / 4.0°C 35.6°F / 2.0°C 87% 30.04 in / 1017.2 hPa 6.0 miles / 9.7 kilometers ESE 3.5 mph / 5.6 km/h - N/A   Mostly Cloudy
3:41 AM 39.2°F / 4.0°C 37.4°F / 3.0°C 93% 30.03 in / 1016.8 hPa 2.5 miles / 4.0 kilometers ESE 3.5 mph / 5.6 km/h - 0.00 in / 0.0 cm Rain Light Rain
3:47 AM 39.2°F / 4.0°C 35.6°F / 2.0°C 87% 30.03 in / 1016.8 hPa 1.8 miles / 2.8 kilometers Calm Calm - 0.00 in / 0.0 cm Rain Light Rain
3:53 AM 39.0°F / 3.9°C 36.0°F / 2.2°C 89% 30.04 in / 1017.0 hPa 1.8 miles / 2.8 kilometers NNW 5.8 mph / 9.3 km/h - 0.01 in / 0.3 cm Rain Light Rain
4:10 AM 39.2°F / 4.0°C 37.4°F / 3.0°C 93% 30.03 in / 1016.8 hPa 2.0 miles / 3.2 kilometers Calm Calm - 0.03 in / 0.8 cm Rain Light Rain
4:17 AM 39.2°F / 4.0°C 37.4°F / 3.0°C 93% 30.03 in / 1016.8 hPa 3.0 miles / 4.8 kilometers ESE 3.5 mph / 5.6 km/h - 0.03 in / 0.8 cm Rain Light Rain
4:43 AM 39.2°F / 4.0°C 37.4°F / 3.0°C 93% 30.03 in / 1016.8 hPa 3.0 miles / 4.8 kilometers Calm Calm - 0.03 in / 0.8 cm Rain Light Rain
4:45 AM 39.2°F / 4.0°C 37.4°F / 3.0°C 93% 30.03 in / 1016.8 hPa 2.5 miles / 4.0 kilometers Calm Calm - 0.04 in / 1.0 cm Rain Light Rain
4:53 AM 39.9°F / 4.4°C 37.0°F / 2.8°C 89% 30.04 in / 1017.0 hPa 2.0 miles / 3.2 kilometers Calm Calm - 0.06 in / 1.5 cm Rain Light Rain
5:21 AM 39.2°F / 4.0°C 37.4°F / 3.0°C 93% 30.02 in / 1016.5 hPa 4.0 miles / 6.4 kilometers ESE 3.5 mph / 5.6 km/h - 0.01 in / 0.3 cm   Overcast
5:53 AM 39.9°F / 4.4°C 37.0°F / 2.8°C 89% 30.02 in / 1016.6 hPa 5.0 miles / 8.0 kilometers East 3.5 mph / 5.6 km/h - 0.01 in / 0.3 cm   Overcast
6:10 AM 39.2°F / 4.0°C 35.6°F / 2.0°C 87% 30.02 in / 1016.5 hPa 2.5 miles / 4.0 kilometers NNW 3.5 mph / 5.6 km/h - 0.00 in / 0.0 cm Rain Light Rain
6:20 AM 39.2°F / 4.0°C 37.4°F / 3.0°C 93% 30.02 in / 1016.5 hPa 1.5 miles / 2.4 kilometers Calm Calm - 0.03 in / 0.8 cm Rain Light Rain
6:32 AM 39.2°F / 4.0°C 37.4°F / 3.0°C 93% 30.02 in / 1016.5 hPa 3.0 miles / 4.8 kilometers East 5.8 mph / 9.3 km/h - 0.05 in / 1.3 cm Rain Light Rain
6:53 AM 39.9°F / 4.4°C 37.0°F / 2.8°C 89% 30.03 in / 1016.7 hPa 3.0 miles / 4.8 kilometers Calm Calm - 0.05 in / 1.3 cm Rain Light Rain
6:57 AM 39.2°F / 4.0°C 37.4°F / 3.0°C 93% 30.02 in / 1016.5 hPa 2.5 miles / 4.0 kilometers Calm Calm - 0.00 in / 0.0 cm Rain Light Rain
7:18 AM 39.2°F / 4.0°C 37.4°F / 3.0°C 93% 30.02 in / 1016.5 hPa 5.0 miles / 8.0 kilometers Calm Calm - 0.01 in / 0.3 cm Rain Light Rain
7:35 AM 39.2°F / 4.0°C 37.4°F / 3.0°C 93% 30.02 in / 1016.5 hPa 2.5 miles / 4.0 kilometers Calm Calm - 0.02 in / 0.5 cm Rain Light Rain
7:42 AM 39.2°F / 4.0°C 37.4°F / 3.0°C 93% 30.02 in / 1016.5 hPa 3.0 miles / 4.8 kilometers East 4.6 mph / 7.4 km/h - 0.02 in / 0.5 cm Rain Light Rain
7:50 AM 39.2°F / 4.0°C 37.4°F / 3.0°C 93% 30.02 in / 1016.5 hPa 2.5 miles / 4.0 kilometers Calm Calm - 0.03 in / 0.8 cm Rain Light Rain
7:53 AM 39.9°F / 4.4°C 37.9°F / 3.3°C 93% 30.03 in / 1016.7 hPa 3.0 miles / 4.8 kilometers Calm Calm - 0.03 in / 0.8 cm Rain Light Rain
7:58 AM 41.0°F / 5.0°C 37.4°F / 3.0°C 87% 30.02 in / 1016.5 hPa 2.5 miles / 4.0 kilometers Calm Calm - 0.00 in / 0.0 cm Rain Light Rain
8:05 AM 41.0°F / 5.0°C 37.4°F / 3.0°C 87% 30.02 in / 1016.5 hPa 2.0 miles / 3.2 kilometers Calm Calm - 0.00 in / 0.0 cm Rain Light Rain
8:34 AM 41.0°F / 5.0°C 37.4°F / 3.0°C 87% 30.02 in / 1016.5 hPa 4.0 miles / 6.4 kilometers Calm Calm - 0.02 in / 0.5 cm   Overcast
8:40 AM 41.0°F / 5.0°C 37.4°F / 3.0°C 87% 30.02 in / 1016.5 hPa 4.0 miles / 6.4 kilometers Calm Calm - 0.02 in / 0.5 cm Rain Light Rain
8:53 AM 41.0°F / 5.0°C 37.9°F / 3.3°C 89% 30.03 in / 1016.7 hPa 4.0 miles / 6.4 kilometers SE 3.5 mph / 5.6 km/h - 0.02 in / 0.5 cm   Overcast
8:58 AM 41.0°F / 5.0°C 37.4°F / 3.0°C 87% 30.02 in / 1016.5 hPa 2.5 miles / 4.0 kilometers SE 3.5 mph / 5.6 km/h - 0.00 in / 0.0 cm Rain Light Rain
9:03 AM 41.0°F / 5.0°C 37.4°F / 3.0°C 87% 30.03 in / 1016.8 hPa 1.5 miles / 2.4 kilometers Calm Calm - 0.00 in / 0.0 cm Rain Light Rain
9:08 AM 41.0°F / 5.0°C 37.4°F / 3.0°C 87% 30.03 in / 1016.8 hPa 0.8 miles / 1.2 kilometers Calm Calm - 0.04 in / 1.0 cm Rain Rain
9:14 AM 41.0°F / 5.0°C 37.4°F / 3.0°C 87% 30.02 in / 1016.5 hPa 1.0 miles / 1.6 kilometers Variable 3.5 mph / 5.6 km/h - 0.06 in / 1.5 cm Rain Light Rain
9:19 AM 41.0°F / 5.0°C 37.4°F / 3.0°C 87% 30.03 in / 1016.8 hPa 1.8 miles / 2.8 kilometers Variable 3.5 mph / 5.6 km/h - 0.06 in / 1.5 cm Rain Light Rain
9:26 AM 41.0°F / 5.0°C 37.4°F / 3.0°C 87% 30.02 in / 1016.5 hPa 2.5 miles / 4.0 kilometers Calm Calm - 0.06 in / 1.5 cm Rain Light Rain
9:36 AM 42.8°F / 6.0°C 37.4°F / 3.0°C 81% 30.02 in / 1016.5 hPa 3.0 miles / 4.8 kilometers SSE 3.5 mph / 5.6 km/h - 0.07 in / 1.8 cm Rain Light Rain
9:53 AM 42.1°F / 5.6°C 37.9°F / 3.3°C 85% 30.03 in / 1016.8 hPa 2.0 miles / 3.2 kilometers SE 3.5 mph / 5.6 km/h - 0.08 in / 2.0 cm Rain Light Rain
10:00 AM 42.8°F / 6.0°C 39.2°F / 4.0°C 87% 30.03 in / 1016.8 hPa 3.0 miles / 4.8 kilometers SE 3.5 mph / 5.6 km/h - 0.00 in / 0.0 cm Rain Light Rain
10:12 AM 42.8°F / 6.0°C 39.2°F / 4.0°C 87% 30.03 in / 1016.8 hPa 1.8 miles / 2.8 kilometers Calm Calm - 0.00 in / 0.0 cm Rain Light Rain
10:28 AM 42.8°F / 6.0°C 39.2°F / 4.0°C 87% 30.03 in / 1016.8 hPa 2.5 miles / 4.0 kilometers Calm Calm - 0.02 in / 0.5 cm Rain Light Rain
10:53 AM 43.0°F / 6.1°C 39.9°F / 4.4°C 89% 30.04 in / 1017.0 hPa 2.5 miles / 4.0 kilometers Calm Calm - 0.03 in / 0.8 cm Rain Light Rain
11:00 AM 42.8°F / 6.0°C 39.2°F / 4.0°C 87% 30.03 in / 1016.8 hPa 3.0 miles / 4.8 kilometers Calm Calm - 0.00 in / 0.0 cm Rain Light Rain
11:11 AM 42.8°F / 6.0°C 39.2°F / 4.0°C 87% 30.03 in / 1016.8 hPa 1.8 miles / 2.8 kilometers SW 3.5 mph / 5.6 km/h - 0.00 in / 0.0 cm Rain Light Rain
11:18 AM 42.8°F / 6.0°C 39.2°F / 4.0°C 87% 30.03 in / 1016.8 hPa 0.8 miles / 1.2 kilometers SSW 5.8 mph / 9.3 km/h - 0.02 in / 0.5 cm Rain Rain
11:25 AM 42.8°F / 6.0°C 37.4°F / 3.0°C 81% 30.03 in / 1016.8 hPa 1.5 miles / 2.4 kilometers SSW 4.6 mph / 7.4 km/h - 0.03 in / 0.8 cm Rain Light Rain
11:33 AM 42.8°F / 6.0°C 39.2°F / 4.0°C 87% 30.02 in / 1016.5 hPa 2.0 miles / 3.2 kilometers South 3.5 mph / 5.6 km/h - 0.04 in / 1.0 cm Rain Light Rain
11:41 AM 42.8°F / 6.0°C 39.2°F / 4.0°C 87% 30.03 in / 1016.8 hPa 1.5 miles / 2.4 kilometers Calm Calm - 0.04 in / 1.0 cm Rain Light Rain
11:48 AM 42.8°F / 6.0°C 39.2°F / 4.0°C 87% 30.02 in / 1016.5 hPa 1.2 miles / 2.0 kilometers Calm Calm - 0.05 in / 1.3 cm Rain Light Rain
11:53 AM 43.0°F / 6.1°C 39.0°F / 3.9°C 86% 30.03 in / 1016.7 hPa 1.5 miles / 2.4 kilometers Variable 3.5 mph / 5.6 km/h - 0.06 in / 1.5 cm Rain Light Rain
12:18 PM 42.8°F / 6.0°C 37.4°F / 3.0°C 81% 30.01 in / 1016.1 hPa 1.0 miles / 1.6 kilometers Variable 3.5 mph / 5.6 km/h - 0.03 in / 0.8 cm Rain Rain
12:37 PM 41.0°F / 5.0°C 35.6°F / 2.0°C 81% 30.01 in / 1016.1 hPa 0.8 miles / 1.2 kilometers Variable 5.8 mph / 9.3 km/h - 0.08 in / 2.0 cm Rain Rain
12:49 PM 42.8°F / 6.0°C 37.4°F / 3.0°C 81% 30.00 in / 1015.8 hPa 1.5 miles / 2.4 kilometers SSW 4.6 mph / 7.4 km/h - 0.12 in / 3.0 cm Rain Light Rain
12:53 PM 42.1°F / 5.6°C 37.9°F / 3.3°C 85% 30.01 in / 1016.0 hPa 1.8 miles / 2.8 kilometers SSW 6.9 mph / 11.1 km/h - 0.13 in / 3.3 cm Rain Light Rain
1:09 PM 42.8°F / 6.0°C 39.2°F / 4.0°C 87% 30.00 in / 1015.8 hPa 2.0 miles / 3.2 kilometers SSW 3.5 mph / 5.6 km/h - 0.01 in / 0.3 cm Rain Light Rain
1:25 PM 44.6°F / 7.0°C 39.2°F / 4.0°C 81% 29.99 in / 1015.5 hPa 2.5 miles / 4.0 kilometers South 3.5 mph / 5.6 km/h - 0.01 in / 0.3 cm Rain Light Rain
1:44 PM 44.6°F / 7.0°C 39.2°F / 4.0°C 81% 29.99 in / 1015.5 hPa 1.5 miles / 2.4 kilometers Calm Calm - 0.02 in / 0.5 cm Rain Light Rain
1:48 PM 44.6°F / 7.0°C 39.2°F / 4.0°C 81% 29.99 in / 1015.5 hPa 1.2 miles / 2.0 kilometers SSW 3.5 mph / 5.6 km/h - 0.03 in / 0.8 cm Rain Light Rain
1:53 PM 43.0°F / 6.1°C 39.9°F / 4.4°C 89% 30.00 in / 1015.7 hPa 1.0 miles / 1.6 kilometers SSW 3.5 mph / 5.6 km/h - 0.03 in / 0.8 cm Rain Light Rain
2:04 PM 42.8°F / 6.0°C 39.2°F / 4.0°C 87% 29.99 in / 1015.5 hPa 1.5 miles / 2.4 kilometers WSW 5.8 mph / 9.3 km/h - 0.02 in / 0.5 cm Rain Light Rain
2:17 PM 44.6°F / 7.0°C 39.2°F / 4.0°C 81% 29.99 in / 1015.5 hPa 2.0 miles / 3.2 kilometers SSW 3.5 mph / 5.6 km/h - 0.02 in / 0.5 cm Rain Light Rain
2:27 PM 44.6°F / 7.0°C 39.2°F / 4.0°C 81% 29.99 in / 1015.5 hPa 1.5 miles / 2.4 kilometers Calm Calm - 0.03 in / 0.8 cm Rain Light Rain
2:40 PM 42.8°F / 6.0°C 39.2°F / 4.0°C 87% 29.99 in / 1015.5 hPa 1.2 miles / 2.0 kilometers South 3.5 mph / 5.6 km/h - 0.04 in / 1.0 cm Rain Light Rain
2:48 PM 42.8°F / 6.0°C 39.2°F / 4.0°C 87% 29.99 in / 1015.5 hPa 1.5 miles / 2.4 kilometers SSW 4.6 mph / 7.4 km/h - 0.06 in / 1.5 cm Rain Light Rain
2:53 PM 43.0°F / 6.1°C 39.0°F / 3.9°C 86% 29.99 in / 1015.5 hPa 1.5 miles / 2.4 kilometers SSW 4.6 mph / 7.4 km/h - 0.06 in / 1.5 cm Rain Light Rain
2:57 PM 42.8°F / 6.0°C 39.2°F / 4.0°C 87% 29.99 in / 1015.5 hPa 1.2 miles / 2.0 kilometers South 3.5 mph / 5.6 km/h - 0.01 in / 0.3 cm Rain Light Rain
3:22 PM 42.8°F / 6.0°C 39.2°F / 4.0°C 87% 29.99 in / 1015.5 hPa 0.8 miles / 1.2 kilometers Calm Calm - 0.04 in / 1.0 cm Rain Light Rain
3:36 PM 42.8°F / 6.0°C 39.2°F / 4.0°C 87% 29.99 in / 1015.5 hPa 1.2 miles / 2.0 kilometers Calm Calm - 0.07 in / 1.8 cm Rain Light Rain
3:40 PM 44.6°F / 7.0°C 39.2°F / 4.0°C 81% 29.99 in / 1015.5 hPa 1.5 miles / 2.4 kilometers Calm Calm - 0.07 in / 1.8 cm Rain Light Rain
3:53 PM 44.1°F / 6.7°C 39.9°F / 4.4°C 85% 29.99 in / 1015.4 hPa 1.8 miles / 2.8 kilometers Calm Calm - 0.08 in / 2.0 cm Rain Light Rain
4:02 PM 42.8°F / 6.0°C 39.2°F / 4.0°C 87% 29.98 in / 1015.1 hPa 2.0 miles / 3.2 kilometers SE 3.5 mph / 5.6 km/h - 0.01 in / 0.3 cm Rain Light Rain
4:21 PM 42.8°F / 6.0°C 39.2°F / 4.0°C 87% 29.98 in / 1015.1 hPa 1.8 miles / 2.8 kilometers ESE 3.5 mph / 5.6 km/h - 0.01 in / 0.3 cm Rain Light Rain
4:31 PM 42.8°F / 6.0°C 39.2°F / 4.0°C 87% 29.98 in / 1015.1 hPa 0.8 miles / 1.2 kilometers ESE 3.5 mph / 5.6 km/h - 0.02 in / 0.5 cm Rain Rain
4:49 PM 41.0°F / 5.0°C 37.4°F / 3.0°C 87% 29.98 in / 1015.1 hPa 1.5 miles / 2.4 kilometers ENE 6.9 mph / 11.1 km/h - 0.06 in / 1.5 cm Rain Light Rain
4:53 PM 41.0°F / 5.0°C 37.0°F / 2.8°C 86% 29.98 in / 1015.2 hPa 3.0 miles / 4.8 kilometers East 5.8 mph / 9.3 km/h - 0.06 in / 1.5 cm Rain Light Rain
5:09 PM 41.0°F / 5.0°C 37.4°F / 3.0°C 87% 29.98 in / 1015.1 hPa 2.5 miles / 4.0 kilometers East 5.8 mph / 9.3 km/h - 0.00 in / 0.0 cm Rain Light Rain
5:12 PM 41.0°F / 5.0°C 37.4°F / 3.0°C 87% 29.98 in / 1015.1 hPa 1.8 miles / 2.8 kilometers Variable 3.5 mph / 5.6 km/h - 0.00 in / 0.0 cm Rain Light Rain
5:19 PM 41.0°F / 5.0°C 37.4°F / 3.0°C 87% 29.98 in / 1015.1 hPa 0.8 miles / 1.2 kilometers East 4.6 mph / 7.4 km/h - 0.01 in / 0.3 cm Rain Light Rain
5:30 PM 39.2°F / 4.0°C 37.4°F / 3.0°C 93% 29.98 in / 1015.1 hPa 1.2 miles / 2.0 kilometers ENE 3.5 mph / 5.6 km/h - 0.01 in / 0.3 cm Rain Light Rain
5:42 PM 39.2°F / 4.0°C 35.6°F / 2.0°C 87% 29.99 in / 1015.5 hPa 1.5 miles / 2.4 kilometers East 3.5 mph / 5.6 km/h - 0.02 in / 0.5 cm Rain Light Rain
5:46 PM 39.2°F / 4.0°C 35.6°F / 2.0°C 87% 29.99 in / 1015.5 hPa 3.0 miles / 4.8 kilometers East 4.6 mph / 7.4 km/h - 0.02 in / 0.5 cm   Overcast
5:51 PM 39.2°F / 4.0°C 35.6°F / 2.0°C 87% 29.99 in / 1015.5 hPa 1.8 miles / 2.8 kilometers East 4.6 mph / 7.4 km/h - 0.02 in / 0.5 cm Rain Light Rain
5:53 PM 39.9°F / 4.4°C 36.0°F / 2.2°C 86% 29.99 in / 1015.5 hPa 1.8 miles / 2.8 kilometers ENE 3.5 mph / 5.6 km/h - 0.02 in / 0.5 cm Rain Light Rain
6:00 PM 39.2°F / 4.0°C 35.6°F / 2.0°C 87% 29.99 in / 1015.5 hPa 2.5 miles / 4.0 kilometers ENE 3.5 mph / 5.6 km/h - 0.00 in / 0.0 cm Rain Light Rain
6:07 PM 39.2°F / 4.0°C 35.6°F / 2.0°C 87% 29.99 in / 1015.5 hPa 3.0 miles / 4.8 kilometers East 5.8 mph / 9.3 km/h - 0.00 in / 0.0 cm   Overcast
6:10 PM 39.2°F / 4.0°C 35.6°F / 2.0°C 87% 29.99 in / 1015.5 hPa 3.0 miles / 4.8 kilometers East 4.6 mph / 7.4 km/h - 0.00 in / 0.0 cm   Overcast
6:13 PM 39.2°F / 4.0°C 35.6°F / 2.0°C 87% 29.99 in / 1015.5 hPa 2.5 miles / 4.0 kilometers ENE 3.5 mph / 5.6 km/h - 0.00 in / 0.0 cm Rain Light Rain
6:19 PM 39.2°F / 4.0°C 35.6°F / 2.0°C 87% 29.99 in / 1015.5 hPa 1.8 miles / 2.8 kilometers East 4.6 mph / 7.4 km/h - 0.01 in / 0.3 cm Rain Light Rain
6:25 PM 39.2°F / 4.0°C 35.6°F / 2.0°C 87% 29.99 in / 1015.5 hPa 3.0 miles / 4.8 kilometers East 5.8 mph / 9.3 km/h - 0.01 in / 0.3 cm   Overcast
6:34 PM 39.2°F / 4.0°C 35.6°F / 2.0°C 87% 29.99 in / 1015.5 hPa 2.5 miles / 4.0 kilometers East 4.6 mph / 7.4 km/h - 0.01 in / 0.3 cm   Overcast
6:42 PM 39.2°F / 4.0°C 35.6°F / 2.0°C 87% 29.99 in / 1015.5 hPa 2.5 miles / 4.0 kilometers East 3.5 mph / 5.6 km/h - 0.01 in / 0.3 cm   Overcast
6:51 PM 39.2°F / 4.0°C 35.6°F / 2.0°C 87% 30.00 in / 1015.8 hPa 5.0 miles / 8.0 kilometers ENE 4.6 mph / 7.4 km/h - 0.01 in / 0.3 cm   Overcast
6:53 PM 39.9°F / 4.4°C 36.0°F / 2.2°C 86% 30.01 in / 1016.0 hPa 5.0 miles / 8.0 kilometers East 4.6 mph / 7.4 km/h - 0.01 in / 0.3 cm   Overcast
7:04 PM 39.2°F / 4.0°C 35.6°F / 2.0°C 87% 30.00 in / 1015.8 hPa 6.0 miles / 9.7 kilometers East 5.8 mph / 9.3 km/h - N/A   Overcast
7:43 PM 39.2°F / 4.0°C 35.6°F / 2.0°C 87% 30.01 in / 1016.1 hPa 6.0 miles / 9.7 kilometers Calm Calm - N/A   Overcast
7:53 PM 39.9°F / 4.4°C 36.0°F / 2.2°C 86% 30.02 in / 1016.4 hPa 6.0 miles / 9.7 kilometers Calm Calm - N/A   Overcast
8:50 PM 39.2°F / 4.0°C 35.6°F / 2.0°C 87% 30.02 in / 1016.5 hPa 7.0 miles / 11.3 kilometers Calm Calm - 0.00 in / 0.0 cm   Overcast
8:53 PM 39.9°F / 4.4°C 36.0°F / 2.2°C 86% 30.02 in / 1016.5 hPa 6.0 miles / 9.7 kilometers Calm Calm - 0.00 in / 0.0 cm   Overcast
9:04 PM 39.2°F / 4.0°C 35.6°F / 2.0°C 87% 30.02 in / 1016.5 hPa 6.0 miles / 9.7 kilometers Calm Calm - N/A   Mostly Cloudy
9:17 PM 39.2°F / 4.0°C 35.6°F / 2.0°C 87% 30.02 in / 1016.5 hPa 5.0 miles / 8.0 kilometers Calm Calm - N/A   Overcast
9:29 PM 39.2°F / 4.0°C 35.6°F / 2.0°C 87% 30.02 in / 1016.5 hPa 2.5 miles / 4.0 kilometers Calm Calm - N/A   Mostly Cloudy
9:37 PM 39.2°F / 4.0°C 35.6°F / 2.0°C 87% 30.02 in / 1016.5 hPa 1.5 miles / 2.4 kilometers ESE 3.5 mph / 5.6 km/h - N/A   Mostly Cloudy
9:48 PM 39.2°F / 4.0°C 35.6°F / 2.0°C 87% 30.01 in / 1016.1 hPa 1.0 miles / 1.6 kilometers Calm Calm - N/A   Mostly Cloudy
9:53 PM 39.0°F / 3.9°C 35.1°F / 1.7°C 86% 30.02 in / 1016.4 hPa 1.8 miles / 2.8 kilometers Calm Calm - N/A   Mostly Cloudy
9:57 PM 39.2°F / 4.0°C 35.6°F / 2.0°C 87% 30.01 in / 1016.1 hPa 2.5 miles / 4.0 kilometers Calm Calm - N/A   Mostly Cloudy
10:00 PM 37.4°F / 3.0°C 35.6°F / 2.0°C 93% 30.01 in / 1016.1 hPa 4.0 miles / 6.4 kilometers Calm Calm - N/A   Mostly Cloudy
10:16 PM 37.4°F / 3.0°C 35.6°F / 2.0°C 93% 30.01 in / 1016.1 hPa 6.0 miles / 9.7 kilometers Calm Calm - N/A   Mostly Cloudy
10:53 PM 37.9°F / 3.3°C 35.1°F / 1.7°C 89% 30.03 in / 1016.8 hPa 4.0 miles / 6.4 kilometers East 3.5 mph / 5.6 km/h - N/A   Scattered Clouds
11:53 PM 41.0°F / 5.0°C 37.0°F / 2.8°C 86% 30.04 in / 1017.3 hPa 5.0 miles / 8.0 kilometers Calm Calm - N/A   Mostly Cloudy
Moon Phase
Jan. 27 Feb. 03 Feb. 10 Feb. 17 Feb. 25
Sunrise:07:51 AM (PST) Moon Rise:06:19 PM (PST)1/27
Sunset:05:11 PM (PST) Moon Set:07:40 AM (PST)1/27

Copyright © 2014 The Weather Underground, Inc.